San Jose, Costa Rica

2:00 AM CST on November 23, 2017 (GMT -0600)
Juan Santamaria International

Weather History for MROC - July, 2012

Change the Weather History Date:

Tuesday, July 3, 2012

  Actual Average Record
Temperature  
Mean Temperature 74 °F -  
Max Temperature 80 °F 80 °F 87 °F (2002)
Min Temperature 67 °F 65 °F 62 °F (1999)
Cooling Degree Days 8    
Growing Degree Days 24 (Base 50)    
Moisture  
Dew Point 61 °F    
Average Humidity 62    
Maximum Humidity 78    
Minimum Humidity 42    
Precipitation  
Precipitation 0.00 in 0.25 in - ()
Sea Level Pressure  
Sea Level Pressure 29.92 in    
Wind  
Wind Speed 10 mph ()    
Max Wind Speed 23 mph    
Max Gust Speed 26 mph    
Visibility 8.2 miles    
Events      
Averages and records for this station are not official NWS values.
T = Trace of Precipitation, MM = Missing Value Source: Averaged Metar Reports

Daily Weather History Graph

Daily Weather History Graph

Search for Another Location

Airport or City:

Trip Planner

Search our weather history database for the weather conditions in past years. The results will help you decide how hot, cold, wet, or windy it might be!

Date:

Astronomy

Jul. 03, 2012 Rise Set
Actual Time 5:20 AM CST 6:02 PM CST
Civil Twilight 4:57 AM CST 6:24 PM CST
Nautical Twilight 4:30 AM CST 6:51 PM CST
Astronomical Twilight 4:03 AM CST 7:19 PM CST
Moon 6:07 PM CST (7/3) 5:05 AM CST (7/3)
Length of Visible Light 13h 27m
Length of Day
12h 41m
Full, 100% of the Moon is Illuminated
Jul 3
Full
Jul 3
Full
Jul 10
Last Quarter
Jul 18
New
Jul 26
First Quarter

Hourly Weather History & Observations

Time (CST) Temp. Heat Index Dew Point Humidity Pressure Visibility Wind Dir Wind Speed Gust Speed Precip Events Conditions
12:00 AM 72 °F - 61 °F 61% 29.81 in 12 mi East 11.5 mph - -   Scattered Clouds
12:00 AM 71.6 °F - 60.8 °F 69% 29.97 in 6.2 mi East 11.5 mph - N/A   Scattered Clouds
1:00 AM 71.6 °F - 60.8 °F 69% 29.95 in - ESE 11.5 mph - N/A   Clear
2:00 AM 71.6 °F - 60.8 °F 69% 29.95 in - ENE 5.8 mph - N/A   Clear
3:00 AM 69 °F - 61 °F 70% 29.81 in 12 mi East 5.8 mph - -   Scattered Clouds
3:00 AM 69.8 °F - 60.8 °F 73% 29.94 in - East 5.8 mph - N/A   Clear
4:00 AM 69.8 °F - 60.8 °F 73% 29.92 in - NE 3.5 mph - N/A   Clear
5:00 AM 69.8 °F - 60.8 °F 73% 29.91 in - ESE 9.2 mph - N/A   Clear
6:00 AM 71 °F - 61 °F 62% 29.80 in 12 mi ESE 13.8 mph - -   Scattered Clouds
6:00 AM 71.6 °F - 60.8 °F 69% 29.93 in 6.2 mi ESE 13.8 mph - N/A   Scattered Clouds
7:00 AM 73.4 °F - 64.4 °F 73% 29.96 in 6.2 mi ESE 13.8 mph - N/A   Scattered Clouds
8:00 AM 77.0 °F - 64.4 °F 65% 29.98 in 6.2 mi East 16.1 mph - N/A   Scattered Clouds
9:00 AM 79 °F - 63 °F 48% 29.83 in 12 mi East 23.0 mph - -   Scattered Clouds
9:00 AM 78.8 °F - 62.6 °F 57% 29.98 in 6.2 mi East 23.0 mph - N/A   Scattered Clouds
10:00 AM 80.6 °F 81.1 °F 59.0 °F 48% 29.96 in - East 15.0 mph 26.5 mph N/A   Clear
11:00 AM 78.8 °F - 59.0 °F 51% 29.97 in 6.2 mi East 13.8 mph 25.3 mph N/A   Mostly Cloudy
12:00 PM 78 °F - 59 °F 42% 29.79 in 12 mi East 13.8 mph - -   Scattered Clouds
12:00 PM 78.8 °F - 59.0 °F 51% 29.96 in - East 13.8 mph - N/A   Clear
1:00 PM 80.6 °F 81.1 °F 59.0 °F 48% 29.92 in - ESE 10.4 mph - N/A   Clear
2:00 PM 80.6 °F 80.8 °F 57.2 °F 45% 29.93 in 6.2 mi East 11.5 mph - N/A   Mostly Cloudy
3:00 PM 80.6 °F 81.1 °F 59.0 °F 48% 29.92 in 6.2 mi ENE 12.7 mph - N/A   Mostly Cloudy
4:00 PM 77.0 °F - 59.0 °F 54% 29.93 in 6.2 mi ENE 11.5 mph - N/A   Mostly Cloudy
5:00 PM 75.2 °F - 59.0 °F 57% 29.95 in 6.2 mi East 8.1 mph - N/A   Mostly Cloudy
6:00 PM 74 °F - 60 °F 53% 29.80 in 12 mi ESE 10.4 mph - -   Overcast
6:00 PM 73.4 °F - 60.8 °F 65% 29.95 in 6.2 mi ESE 10.4 mph - N/A   Mostly Cloudy
7:00 PM 73.4 °F - 60.8 °F 65% 29.97 in 6.2 mi ESE 11.5 mph - N/A   Scattered Clouds
8:00 PM 71.6 °F - 60.8 °F 69% 29.98 in 6.2 mi ESE 8.1 mph - N/A   Scattered Clouds
9:00 PM 71 °F - 62 °F 64% 29.82 in 12 mi ESE 5.8 mph - -   Overcast
9:00 PM 71.6 °F - 60.8 °F 69% 30.00 in - ESE 5.8 mph - N/A   Clear
10:00 PM 71.6 °F - 60.8 °F 69% 30.00 in - ESE 5.8 mph - N/A   Clear
11:00 PM 69.8 °F - 62.6 °F 78% 30.00 in - ENE 3.5 mph - N/A   Clear